Support us
Login | Signup

Popular TAGs: 2016 2015 2014 2013 720p 1080p m1080p XviD x264 x265 3D DVDrip BDrip MKV 320kbps

Show only:                                            

Sort by: Date | Name | Seeders | Leechers | Comments

04-11-2016 Torrent Andy Grammer 2014 Magazines Or Novels 91.15 MB 2 0
04-11-2016 Torrent The Weeknd 2013 Kiss Land 150.17 MB 12 0
04-11-2016 Torrent Paramore 2013 Paramore 161.39 MB 1 0
04-11-2016 Torrent Nina Persson 2014 Animal Heart 100.77 MB 0 3
04-11-2016 Torrent King Diamond 1987 Abigail 131.06 MB 0 0
04-11-2016 Torrent Adramelch 2015 Opus 153.2 MB 0 0
04-11-2016 Torrent U2 2011 Duals 147.13 MB 3 0
04-11-2016 Torrent Yeah Yeah Yeahs 2013 Mosquito 144.77 MB 0 0
04-11-2016 Torrent Patrick Watson 2015 Love Songs For Robots 118.11 MB 0 0
04-11-2016 Torrent Flightcrank 2001 Beyond All Reasonable Doubt 128.19 MB 0 1
04-11-2016 Torrent Left Lane Cruiser 2015 Dirty Spliff Blues 89 MB 1 0
04-11-2016 Torrent Bill Ward 2015 Accountable Beasts 95.65 MB 0 1
04-11-2016 Torrent This Will Destroy You 2014 Another Language 133.11 MB 0 1
04-11-2016 Torrent Hidden History 2015 Mysterion 92.4 MB 0 0
04-11-2016 Torrent Gingembre 2015 Omnidome 71.29 MB 0 0
04-11-2016 Torrent Madness of Sorrow 2015 III The Beast 83 MB 2 0
04-11-2016 Torrent Jennifer Lopez 2011 Love 154.08 MB 0 2
04-11-2016 Torrent Bilal 2015 In Another Life 93.2 MB 0 0
04-11-2016 Torrent Decades/Failures 2015 Goodby3 86.35 MB 0 2
04-11-2016 Torrent Grace Jones 1985 Slave to the Rhythm 86.32 MB 1 0
04-11-2016 Torrent Avril Lavigne 2002 Let Go 113.6 MB 2 1
04-11-2016 Torrent Stormhold 2015 Battle Of The Royal Halls 127.2 MB 0 0
04-11-2016 Torrent VA 1997 Super Best Ballads 166.58 MB 1 0
04-11-2016 Torrent The Notorious B.I.G. 1999 Born Again 173.61 MB 11 0
04-11-2016 Torrent Max Guld 2015 For Enden Af Corridoren 90.75 MB 0 0
04-11-2016 Torrent Alice Cooper 2015 Live Poison 190.89 MB 4 0
04-11-2016 Torrent Worldview 2015 The Chosen Few 118.26 MB 0 0
04-11-2016 Torrent The Voltage Collective 2015 Edge Of Sanity 94.34 MB 1 0
04-11-2016 Torrent VA 2015 Boogie Nights 160.92 MB 1 0
04-11-2016 Torrent Taylor's Code 2015 Mirrors 135.08 MB 0 1
04-11-2016 Torrent Kinetic Element 2015 Travelog 160.65 MB 0 1
04-11-2016 Torrent Sanni 2015 Lelu 91.14 MB 0 1
04-11-2016 Torrent Mariah Carey 2009 Memoirs Of An Imperfect Angel 168.17 MB 1 1
04-11-2016 Torrent Heather Nova 2015 The Way It Feels 135.32 MB 0 0
04-11-2016 Torrent Thomas Christ 2015 Apille 122.95 MB 0 1
 «  1 2 3 4 5 ... 24 25 26 27 28 29 30 31 32 ... 439 440 441 442 443  »
  Movie/Films     Animation/Cartoons     TV Shows/Series     Music     Games     Applications     Books     Other  

   How works MfT    Rules    Suggest idea    Request torrent    Privacy Policy    DMCA    Contacts    MfT Status    Friends sites    Is this site safe?   

mkv, HD-Rip , BD-Rip , Blu-Ray , HD Film , hd film , hd films , scarica film gratis , hd torrents , hd torrent , hdtorrents, hdrip , bdrip , Bluray ,

Blu-Ray player, scarica film , scarica torrent , torrent film , film ita, bluray, mux, 1080p, 720p, hdtorrents, torrent ita, torrents ita, HD film ita, HD ita, Blu-Ray ita